EHI
19 10 2 0 0 0 0 0 0 1 2 1 0 0 0 0 0 0 0 0 0 0 0 0 0 0 0 0 0 0 0 0 0 0 0 0 0 0 0 0 0 0 0
34 21 7 1 0 0 0 1 2 3 2 1 0 0 0 0 0 0 0 0 0 0 0 0 0 0 0 0 0 0 0 0 0 0 0 0 0 0 0 0 0 0 0
59 40 15 3 1 1 2 3 4 5 4 1 0 0 0 0 0 0 0 0 0 0 0 0 0 0 0 0 0 0 0 0 0 0 0 0 0 0 0 0 0 0 0
78 53 19 4 5 9 8 6 4 4 4 1 0 0 0 0 0 0 0 0 0 0 0 0 0 0 0 0 0 0 0 0 0 0 0 0 0 0 0 0 0 0 0
78 51 18 7 17 29 30 20 9 2 2 1 0 0 0 0 0 0 0 0 0 0 0 0 0 0 0 0 0 0 0 0 0 0 0 0 0 0 0 0 0 0 0
61 43 27 24 39 57 59 43 25 11 5 1 0 0 0 0 0 0 0 0 0 0 0 0 0 0 0 0 0 0 0 0 0 0 0 0 0 0 0 0 0 0 0
51 48 48 53 64 76 74 58 40 27 14 5 1 0 0 0 0 0 0 0 0 0 0 0 0 0 0 0 0 0 0 0 0 0 0 0 0 0 0 0 0 0 0
48 52 60 67 71 73 67 53 41 33 21 9 3 1 0 0 0 0 0 0 0 0 0 0 0 0 0 0 0 0 0 0 0 0 0 0 0 0 0 0 0 0 0
30 33 41 46 48 48 43 36 31 27 20 12 7 3 1 1 0 0 0 0 0 0 0 0 0 0 0 0 0 0 0 0 0 0 0 0 0 0 0 0 0 0 0
7 9 12 15 17 18 17 16 17 16 13 12 10 5 2 1 0 0 0 0 0 0 0 0 0 0 0 0 0 0 0 0 0 0 0 0 0 0 0 0 0 0 0
0 0 0 1 2 2 3 3 4 5 6 8 8 5 2 1 0 0 0 0 0 0 0 0 0 0 0 0 0 0 0 0 0 0 0 0 0 0 0 0 0 0 0
0 0 0 0 0 0 0 0 0 0 1 3 2 2 1 0 0 0 0 0 0 0 0 0 0 0 0 0 0 0 0 0 0 0 0 0 0 0 0 0 0 0 0
0 0 0 0 0 0 0 0 0 0 0 0 0 0 0 0 0 0 0 0 0 0 0 0 0 0 0 0 0 0 0 0 0 0 0 0 0 0 0 0 0 0 0
0 0 0 0 0 0 0 0 0 0 0 0 0 0 0 0 0 0 0 0 0 0 0 0 0 0 0 0 0 0 0 0 0 0 0 0 0 0 0 0 0 0 0
0 0 0 0 0 0 0 0 0 0 0 0 0 0 0 0 0 0 0 0 0 0 0 0 0 0 0 0 0 0 0 0 0 0 0 0 0 0 0 0 0 0 0
0 0 0 0 0 0 0 0 0 0 0 0 0 0 0 0 0 0 0 0 0 0 0 0 0 0 0 0 0 0 0 0 0 0 0 0 0 0 0 0 0 0 0
0 0 0 0 0 0 0 0 0 0 0 0 0 0 0 0 0 0 0 0 0 0 0 0 0 0 0 0 0 0 0 0 0 0 0 0 0 0 0 0 0 0 0
0 0 0 0 0 0 0 0 0 0 0 0 0 0 0 0 0 0 0 0 0 0 0 0 0 0 0 0 0 0 0 0 0 0 0 0 0 0 0 0 0 0 0
0 0 0 0 0 0 0 0 0 0 0 0 0 0 0 0 0 0 0 0 0 0 0 0 0 0 0 0 0 0 0 0 0 0 0 0 0 0 0 0 0 0 0
0 0 0 0 0 0 0 0 0 0 0 0 0 0 0 0 0 0 0 0 0 0 0 0 0 0 0 0 0 0 0 0 0 0 0 0 0 0 0 0 0 0 0
0 0 0 0 0 0 0 0 0 0 0 0 0 0 0 0 0 0 0 0 0 0 0 0 0 0 0 0 0 0 0 0 0 0 0 0 0 0 0 0 0 0 0
0 0 0 0 0 0 0 0 0 0 0 0 0 0 0 0 0 0 0 0 0 0 0 0 0 0 0 0 0 0 0 0 0 0 0 0 0 0 0 0 0 0 0
0 0 0 0 0 0 0 0 0 0 0 0 0 0 0 0 0 0 0 0 0 0 0 0 0 0 0 0 0 0 0 0 0 0 0 0 0 0 0 0 0 0 0
0 0 0 0 0 0 0 0 0 0 0 0 0 0 0 0 0 0 0 0 0 0 0 0 0 0 0 0 0 0 0 0 0 0 0 0 0 0 0 0 0 0 0
0 0 0 0 0 0 0 0 0 0 0 0 0 0 0 0 0 0 0 0 0 0 0 0 0 0 0 0 0 0 0 0 0 0 0 0 0 0 0 0 0 0 0
0 0 0 0 0 0 0 0 0 0 0 0 0 0 0 0 0 0 0 0 0 0 0 0 0 0 0 0 0 0 0 0 0 0 0 0 0 0 0 0 0 0 0
Wind_Speed
6 4 5 2 1 3 2 3 3 3 4 4 4 3 4 4 4 3 3 4 5 5 5 5 4 2 3 3 1 1 1 2 4 3 3 4 6 7 5 4 7 6 6
6 5 6 5 4 3 4 5 5 5 5 5 5 5 5 5 4 4 4 4 5 6 6 6 5 2 2 3 1 0 1 2 3 4 3 3 5 7 7 6 7 7 6
7 6 6 5 6 5 5 6 6 6 6 6 5 6 5 6 6 5 4 4 3 4 5 6 7 6 3 0 2 1 1 3 2 2 3 3 2 5 7 6 5 3 7
7 5 5 5 6 6 5 5 5 6 6 7 6 6 6 6 7 6 6 5 5 4 4 5 6 6 5 2 0 1 1 2 3 2 3 2 2 2 5 5 4 3 4
8 6 5 5 5 6 4 4 4 4 5 5 5 5 6 6 7 7 7 7 6 6 6 6 6 8 9 6 4 2 1 2 3 3 4 3 3 3 4 4 4 4 4
8 6 5 3 2 3 3 4 4 4 4 4 4 4 6 6 9 12 8 6 7 7 7 8 8 10 13 14 13 11 8 5 4 4 5 5 6 6 4 4 5 4 4
3 2 1 1 1 2 2 3 4 4 4 4 4 3 4 5 11 12 10 5 5 7 8 8 8 10 14 10 13 16 14 15 14 7 6 7 6 7 7 7 6 7 5
7 5 5 4 4 3 3 4 4 4 4 5 5 5 4 5 10 11 10 5 4 5 6 8 9 8 11 12 10 9 10 10 11 10 7 6 5 5 8 10 8 6 4
7 7 8 8 7 6 5 4 4 4 4 3 4 5 5 4 9 9 8 4 4 5 5 5 4 4 8 13 8 6 5 4 3 5 5 3 4 2 3 4 6 5 4
7 7 7 6 6 6 6 5 4 3 3 3 2 1 2 2 8 9 8 3 3 3 3 2 2 4 4 6 5 4 3 3 3 4 3 3 3 4 5 4 5 5 4
5 5 5 5 4 4 5 4 4 3 3 3 3 2 2 0 5 8 8 2 1 2 2 2 2 6 6 5 2 1 2 0 2 3 2 2 2 2 3 3 2 3 4
3 3 3 4 4 4 4 3 3 2 2 2 1 1 1 0 3 5 6 4 0 1 2 1 3 6 6 4 3 5 4 1 1 2 2 2 1 1 1 2 1 1 1
3 2 3 4 3 3 3 3 2 2 2 2 2 2 1 1 1 3 4 3 2 0 1 4 7 6 4 3 4 4 2 1 1 1 2 2 1 1 1 1 1 1 1
3 2 4 4 3 4 4 5 5 5 5 4 4 3 3 2 2 1 1 2 3 2 2 5 6 4 0 1 4 2 2 1 1 1 1 1 1 1 1 1 1 1 1
3 4 4 4 3 3 4 5 5 6 5 4 4 4 4 3 4 5 2 1 1 1 2 2 2 2 2 2 2 2 1 1 1 1 1 1 1 2 2 2 2 2 2
4 4 3 2 2 2 3 4 7 6 7 8 7 5 3 4 6 4 2 2 3 3 2 1 2 2 3 3 2 2 1 2 2 2 1 2 2 2 2 2 2 3 3
3 3 2 2 1 0 1 2 3 3 4 6 7 8 7 7 5 4 4 4 4 3 1 1 1 0 1 1 1 1 1 1 2 2 2 2 2 2 2 3 3 3 3
2 3 2 2 2 2 1 2 2 2 2 1 3 7 7 7 6 5 4 2 2 1 2 2 3 3 2 2 1 1 1 1 0 1 2 2 2 2 2 2 3 4 4
3 3 3 2 2 2 2 2 2 3 2 2 1 1 3 3 2 3 4 2 3 3 3 4 4 3 3 3 2 2 1 1 1 1 1 1 1 1 2 2 3 4 4
4 4 2 2 2 1 2 2 2 2 3 2 2 2 2 2 2 2 3 4 4 4 4 4 4 4 3 3 3 3 2 2 2 2 2 2 2 1 2 2 2 2 3
3 4 1 2 2 2 2 3 2 3 3 3 3 3 5 3 3 4 4 4 4 4 4 3 3 3 3 3 3 3 3 3 2 2 2 2 2 2 2 2 2 2 2
2 4 2 1 2 3 2 2 2 3 4 4 3 2 4 3 3 3 3 4 3 3 3 3 3 3 3 3 3 3 3 3 3 3 3 3 2 2 2 3 3 3 3
0 3 3 2 2 2 1 2 2 3 3 3 3 2 3 3 3 4 4 4 4 4 4 4 4 4 4 4 4 4 4 4 4 4 4 4 3 3 3 3 4 3 3
2 3 3 2 2 1 2 3 3 3 4 3 3 3 3 3 3 4 4 4 4 5 5 5 5 6 7 5 4 4 4 5 6 4 5 4 4 3 3 3 2 3 3
3 3 3 2 2 2 2 3 3 4 4 3 3 3 3 3 3 4 4 4 5 5 5 5 4 5 7 8 7 6 8 10 7 5 4 3 3 3 3 2 2 2 2
3 4 3 2 2 2 3 3 3 4 4 3 3 3 3 3 3 3 4 4 4 4 4 4 6 8 9 7 8 9 10 10 9 8 4 3 3 2 3 2 2 2 2
Wind_Direction
185 177 141 171 159 149 174 147 148 169 169 184 200 199 175 175 185 194 210 216 222 220 210 194 194 251 300 282 178 169 209 167 182 220 196 174 160 159 157 153 154 170 174
174 166 162 172 167 195 191 172 177 183 183 200 194 198 184 177 178 183 199 205 212 213 198 174 156 145 19 308 313 260 262 258 197 199 201 186 176 170 160 180 180 185 170
167 166 167 177 184 204 209 182 182 184 187 203 202 196 186 175 176 178 177 174 172 173 169 155 136 127 111 18 1 351 311 297 279 198 207 203 198 171 160 185 194 185 168
158 167 182 205 190 195 210 188 186 196 193 201 209 195 181 175 175 176 174 170 164 160 158 149 143 143 150 147 344 331 330 306 289 252 221 203 212 182 162 174 195 194 172
152 173 194 226 202 187 197 184 199 217 212 210 209 196 185 178 183 180 177 181 180 183 187 187 183 182 182 188 203 221 252 274 284 264 235 204 193 183 195 181 186 186 202
155 180 193 215 233 183 189 194 210 217 228 235 217 202 191 193 182 178 178 186 186 194 200 203 204 204 207 210 219 224 220 228 242 250 237 217 206 196 194 190 181 181 210
121 127 143 200 274 266 242 233 223 217 217 239 244 225 204 170 165 174 184 191 199 205 208 207 211 211 208 215 223 231 236 238 234 234 238 228 212 197 193 203 202 196 203
42 31 26 21 3 343 314 286 266 247 227 219 228 235 229 184 180 180 182 205 235 235 222 214 212 214 206 207 216 223 227 231 230 223 228 230 221 202 194 201 203 203 213
35 31 35 33 23 8 349 324 305 291 280 258 237 231 230 200 190 186 176 204 239 255 256 241 221 219 209 198 203 218 231 229 201 177 169 149 136 173 213 183 183 183 199
36 37 38 35 24 7 351 344 342 337 330 333 321 305 260 204 187 191 193 213 244 269 294 281 152 127 122 173 195 209 231 235 163 151 156 172 200 211 210 196 180 180 184
42 42 41 31 29 15 355 356 3 13 14 12 10 9 4 20 174 190 195 216 254 319 329 335 103 127 125 130 118 114 148 106 147 153 161 181 199 192 191 207 188 184 188
55 47 70 60 30 19 4 1 6 22 30 22 13 360 342 18 152 189 199 210 198 340 319 336 116 133 126 116 105 120 109 67 108 133 155 182 193 198 196 197 185 105 130
68 40 75 92 67 27 8 2 4 17 31 37 36 30 15 35 129 178 197 198 173 179 81 100 128 139 133 124 130 131 135 176 152 161 193 200 191 172 138 109 55 52 5
113 78 79 75 69 52 28 18 26 24 23 28 29 18 10 20 36 30 204 183 161 156 137 119 127 132 217 153 145 173 224 229 174 196 215 194 156 151 170 171 164 154 264
92 91 89 86 85 82 69 44 32 50 37 23 14 7 9 13 10 355 1 29 130 145 140 147 161 163 190 189 169 178 182 160 176 258 234 205 193 200 202 189 186 177 193
50 61 69 89 88 106 130 108 59 61 56 52 40 18 6 358 338 350 32 76 89 85 97 208 222 207 192 175 173 179 193 210 216 213 216 222 220 218 215 198 194 198 214
39 57 46 58 72 227 192 152 142 101 67 52 37 27 20 8 22 48 68 78 83 89 99 225 222 131 95 110 129 157 208 221 206 200 214 224 224 227 222 214 208 214 226
56 90 37 33 7 1 19 56 100 132 134 103 50 37 33 36 47 57 41 23 64 61 69 76 74 72 70 71 82 68 349 332 270 245 244 239 224 218 227 231 221 221 231
48 56 44 29 6 33 59 71 78 85 102 112 112 59 32 20 5 354 344 354 45 59 61 63 60 56 50 46 44 33 10 338 313 294 292 287 266 235 235 241 246 247 241
101 85 34 350 352 51 74 82 85 83 86 90 73 38 344 323 353 16 21 29 42 50 55 61 55 44 36 30 21 13 5 354 343 338 322 310 301 289 272 266 257 254 248
147 131 128 315 9 41 61 73 73 82 86 79 73 42 10 25 38 40 39 37 37 39 45 55 58 46 35 24 17 10 6 357 355 346 336 329 329 321 311 289 274 259 253
141 141 156 107 67 46 39 76 79 84 93 90 93 78 34 38 41 43 43 40 41 40 37 43 54 49 37 27 15 7 358 350 346 336 322 309 299 293 289 282 272 254 246
150 115 115 108 106 103 52 92 89 86 93 92 81 69 55 52 47 44 44 36 36 42 39 38 42 38 30 25 25 20 5 351 337 324 316 306 298 288 282 279 276 275 268
147 114 115 126 128 118 99 98 93 87 85 89 90 82 71 64 60 54 52 47 50 51 49 46 44 38 33 29 26 25 11 347 329 316 313 308 306 300 294 290 291 294 295
130 121 125 132 139 135 116 111 105 100 95 87 85 78 69 68 65 62 59 61 65 61 56 51 43 32 22 25 22 8 352 347 343 331 313 310 314 318 323 319 316 312 302
132 128 125 124 134 128 115 115 113 108 102 93 84 75 71 71 69 66 61 56 61 60 49 46 50 42 21 13 8 1 355 352 350 346 330 318 330 344 347 334 318 303 294